Year,Month,Day,Hour,Minute,Value (Times are PST for temperature in C)
2008,06,28,00,00,15.90
2008,06,28,00,01,15.90
2008,06,28,00,02,15.90
2008,06,28,00,03,15.80
2008,06,28,00,04,15.80
2008,06,28,00,05,15.80
2008,06,28,00,06,15.70
2008,06,28,00,07,15.70
2008,06,28,00,08,15.70
2008,06,28,00,09,15.70
2008,06,28,00,10,15.70
2008,06,28,00,11,15.70
2008,06,28,00,12,15.60
2008,06,28,00,13,15.60
2008,06,28,00,14,15.60
2008,06,28,00,15,15.60
2008,06,28,00,16,15.60
2008,06,28,00,17,15.60
2008,06,28,00,18,15.60
2008,06,28,00,19,15.60
2008,06,28,00,20,15.60
2008,06,28,00,21,15.50
2008,06,28,00,22,15.50
2008,06,28,00,23,15.50
2008,06,28,00,24,15.50
2008,06,28,00,25,15.50
2008,06,28,00,26,15.50
2008,06,28,00,27,15.50
2008,06,28,00,28,15.50
2008,06,28,00,29,15.50
2008,06,28,00,30,15.50
2008,06,28,00,31,15.40
2008,06,28,00,32,15.40
2008,06,28,00,33,15.40
2008,06,28,00,34,15.40
2008,06,28,00,35,15.40
2008,06,28,00,36,15.30
2008,06,28,00,37,15.30
2008,06,28,00,38,15.30
2008,06,28,00,39,15.30
2008,06,28,00,40,15.30
2008,06,28,00,41,15.30
2008,06,28,00,42,15.30
2008,06,28,00,43,15.30
2008,06,28,00,44,15.30
2008,06,28,00,45,15.30
2008,06,28,00,46,15.30
2008,06,28,00,47,15.30
2008,06,28,00,48,15.30
2008,06,28,00,49,15.30
2008,06,28,00,50,15.30
2008,06,28,00,51,15.20
2008,06,28,00,52,15.20
2008,06,28,00,53,15.20
2008,06,28,00,54,15.20
2008,06,28,00,55,15.20
2008,06,28,00,56,15.20
2008,06,28,00,57,15.20
2008,06,28,00,58,15.20
2008,06,28,00,59,15.10
2008,06,28,01,00,15.10
2008,06,28,01,01,15.00
2008,06,28,01,02,15.00
2008,06,28,01,03,15.00
2008,06,28,01,04,15.00
2008,06,28,01,05,15.00
2008,06,28,01,06,15.00
2008,06,28,01,07,15.00
2008,06,28,01,08,15.00
2008,06,28,01,09,14.90
2008,06,28,01,10,14.80
2008,06,28,01,11,14.80
2008,06,28,01,12,14.80
2008,06,28,01,13,14.80
2008,06,28,01,14,14.80
2008,06,28,01,15,14.80
2008,06,28,01,16,14.80
2008,06,28,01,17,14.80
2008,06,28,01,18,14.80
2008,06,28,01,19,14.80
2008,06,28,01,20,14.70
2008,06,28,01,21,14.70
2008,06,28,01,22,14.70
2008,06,28,01,23,14.60
2008,06,28,01,24,14.60
2008,06,28,01,25,14.60
2008,06,28,01,26,14.60
2008,06,28,01,27,14.60
2008,06,28,01,28,14.60
2008,06,28,01,29,14.60
2008,06,28,01,30,14.60
2008,06,28,01,31,14.60
2008,06,28,01,32,14.50
2008,06,28,01,33,14.50
2008,06,28,01,34,14.50
2008,06,28,01,35,14.50
2008,06,28,01,36,14.40
2008,06,28,01,37,14.40
2008,06,28,01,38,14.40
2008,06,28,01,39,14.40
2008,06,28,01,40,14.40
2008,06,28,01,41,14.40
2008,06,28,01,42,14.40
2008,06,28,01,43,14.40
2008,06,28,01,44,14.40
2008,06,28,01,45,14.30
2008,06,28,01,46,14.40
2008,06,28,01,47,14.40
2008,06,28,01,48,14.40
2008,06,28,01,49,14.50
2008,06,28,01,50,14.50
2008,06,28,01,51,14.60
2008,06,28,01,52,14.60
2008,06,28,01,53,14.60
2008,06,28,01,54,14.60
2008,06,28,01,55,14.60
2008,06,28,01,56,14.70
2008,06,28,01,57,14.80
2008,06,28,01,58,14.80
2008,06,28,01,59,14.90
2008,06,28,02,00,14.90
2008,06,28,02,01,14.90
2008,06,28,02,02,14.90
2008,06,28,02,03,14.90
2008,06,28,02,04,14.90
2008,06,28,02,05,14.90
2008,06,28,02,06,14.80
2008,06,28,02,07,14.80
2008,06,28,02,08,14.80
2008,06,28,02,09,14.80
2008,06,28,02,10,14.80
2008,06,28,02,11,14.70
2008,06,28,02,12,14.70
2008,06,28,02,13,14.70
2008,06,28,02,14,14.70
2008,06,28,02,15,14.60
2008,06,28,02,16,14.60
2008,06,28,02,17,14.60
2008,06,28,02,18,14.60
2008,06,28,02,19,14.60
2008,06,28,02,20,14.60
2008,06,28,02,21,14.60
2008,06,28,02,22,14.70
2008,06,28,02,23,14.70
2008,06,28,02,24,14.70
2008,06,28,02,25,14.70
2008,06,28,02,26,14.70
2008,06,28,02,27,14.70
2008,06,28,02,28,14.70
2008,06,28,02,29,14.70
2008,06,28,02,30,14.70
2008,06,28,02,31,14.70
2008,06,28,02,32,14.70
2008,06,28,02,33,14.70
2008,06,28,02,34,14.70
2008,06,28,02,35,14.70
2008,06,28,02,36,14.70
2008,06,28,02,37,14.70
2008,06,28,02,38,14.70
2008,06,28,02,39,14.60
2008,06,28,02,40,14.60
2008,06,28,02,41,14.60
2008,06,28,02,42,14.60
2008,06,28,02,43,14.50
2008,06,28,02,44,14.50
2008,06,28,02,45,14.50
2008,06,28,02,46,14.50
2008,06,28,02,47,14.50
2008,06,28,02,48,14.50
2008,06,28,02,49,14.50
2008,06,28,02,50,14.50
2008,06,28,02,51,14.50
2008,06,28,02,52,14.50
2008,06,28,02,53,14.50
2008,06,28,02,54,14.50
2008,06,28,02,55,14.50
2008,06,28,02,56,14.50
2008,06,28,02,57,14.50
2008,06,28,02,58,14.40
2008,06,28,02,59,14.40
2008,06,28,03,00,14.40
2008,06,28,03,01,14.40
2008,06,28,03,02,14.40
2008,06,28,03,03,14.40
2008,06,28,03,04,14.40
2008,06,28,03,05,14.40
2008,06,28,03,06,14.40
2008,06,28,03,07,14.40
2008,06,28,03,08,14.40
2008,06,28,03,09,14.40
2008,06,28,03,10,14.40
2008,06,28,03,11,14.30
2008,06,28,03,12,14.30
2008,06,28,03,13,14.30
2008,06,28,03,14,14.30
2008,06,28,03,15,14.30
2008,06,28,03,16,14.30
2008,06,28,03,17,14.30
2008,06,28,03,18,14.30
2008,06,28,03,19,14.30
2008,06,28,03,20,14.30
2008,06,28,03,21,14.30
2008,06,28,03,22,14.20
2008,06,28,03,23,14.20
2008,06,28,03,24,14.30
2008,06,28,03,25,14.30
2008,06,28,03,26,14.30
2008,06,28,03,27,14.20
2008,06,28,03,28,14.20
2008,06,28,03,29,14.20
2008,06,28,03,30,14.20
2008,06,28,03,31,14.30
2008,06,28,03,32,14.30
2008,06,28,03,33,14.20
2008,06,28,03,34,14.20
2008,06,28,03,35,14.20
2008,06,28,03,36,14.30
2008,06,28,03,37,14.30
2008,06,28,03,38,14.30
2008,06,28,03,39,14.30
2008,06,28,03,40,14.30
2008,06,28,03,41,14.30
2008,06,28,03,42,14.30
2008,06,28,03,43,14.30
2008,06,28,03,44,14.20
2008,06,28,03,45,14.20
2008,06,28,03,46,14.20
2008,06,28,03,47,14.20
2008,06,28,03,48,14.20
2008,06,28,03,49,14.20
2008,06,28,03,50,14.20
2008,06,28,03,51,14.20
2008,06,28,03,52,14.20
2008,06,28,03,53,14.10
2008,06,28,03,54,14.10
2008,06,28,03,55,14.10
2008,06,28,03,56,14.10
2008,06,28,03,57,14.10
2008,06,28,03,58,14.10
2008,06,28,03,59,14.00
2008,06,28,04,00,14.00
2008,06,28,04,01,14.00
2008,06,28,04,02,13.90
2008,06,28,04,03,13.90
2008,06,28,04,04,13.90
2008,06,28,04,05,13.90
2008,06,28,04,06,13.90
2008,06,28,04,07,13.90
2008,06,28,04,08,13.90
2008,06,28,04,09,14.00
2008,06,28,04,10,14.00
2008,06,28,04,11,14.00
2008,06,28,04,12,13.90
2008,06,28,04,13,13.90
2008,06,28,04,14,13.90
2008,06,28,04,15,13.90
2008,06,28,04,16,13.90
2008,06,28,04,17,13.90
2008,06,28,04,18,13.90
2008,06,28,04,19,13.90
2008,06,28,04,20,13.90
2008,06,28,04,21,13.90
2008,06,28,04,22,13.90
2008,06,28,04,23,13.90
2008,06,28,04,24,13.80
2008,06,28,04,25,13.80
2008,06,28,04,26,13.80
2008,06,28,04,27,13.80
2008,06,28,04,28,13.80
2008,06,28,04,29,13.80
2008,06,28,04,30,13.80
2008,06,28,04,31,13.80
2008,06,28,04,32,13.80
2008,06,28,04,33,13.80
2008,06,28,04,34,13.80
2008,06,28,04,35,13.80
2008,06,28,04,36,13.90
2008,06,28,04,37,13.90
2008,06,28,04,38,13.90
2008,06,28,04,39,13.80
2008,06,28,04,40,13.80
2008,06,28,04,41,13.80
2008,06,28,04,42,13.80
2008,06,28,04,43,13.80
2008,06,28,04,44,13.80
2008,06,28,04,45,13.80
2008,06,28,04,46,13.80
2008,06,28,04,47,13.80
2008,06,28,04,48,13.80
2008,06,28,04,49,13.80
2008,06,28,04,50,13.90
2008,06,28,04,51,13.90
2008,06,28,04,52,13.90
2008,06,28,04,53,13.90
2008,06,28,04,54,14.00
2008,06,28,04,55,14.00
2008,06,28,04,56,14.00
2008,06,28,04,57,14.10
2008,06,28,04,58,14.10
2008,06,28,04,59,14.10
2008,06,28,05,00,14.10
2008,06,28,05,01,14.10
2008,06,28,05,02,14.10
2008,06,28,05,03,14.10
2008,06,28,05,04,14.10
2008,06,28,05,05,14.10
2008,06,28,05,06,14.10
2008,06,28,05,07,14.10
2008,06,28,05,08,14.10
2008,06,28,05,09,14.10
2008,06,28,05,10,14.20
2008,06,28,05,11,14.10
2008,06,28,05,12,14.20
2008,06,28,05,13,14.10
2008,06,28,05,14,14.10
2008,06,28,05,15,14.10
2008,06,28,05,16,14.10
2008,06,28,05,17,14.10
2008,06,28,05,18,14.10
2008,06,28,05,19,14.10
2008,06,28,05,20,14.10
2008,06,28,05,21,14.10
2008,06,28,05,22,14.00
2008,06,28,05,23,14.00
2008,06,28,05,24,14.00
2008,06,28,05,25,14.00
2008,06,28,05,26,14.00
2008,06,28,05,27,14.00
2008,06,28,05,28,14.00
2008,06,28,05,29,14.00
2008,06,28,05,30,14.00
2008,06,28,05,31,14.00
2008,06,28,05,32,14.00
2008,06,28,05,33,14.00
2008,06,28,05,34,14.00
2008,06,28,05,35,14.00
2008,06,28,05,36,14.00
2008,06,28,05,37,14.00
2008,06,28,05,38,14.00
2008,06,28,05,39,14.00
2008,06,28,05,40,14.00
2008,06,28,05,41,14.00
2008,06,28,05,42,14.00
2008,06,28,05,43,14.00
2008,06,28,05,44,13.90
2008,06,28,05,45,13.90
2008,06,28,05,46,13.90
2008,06,28,05,47,13.90
2008,06,28,05,48,14.00
2008,06,28,05,49,14.00
2008,06,28,05,50,14.00
2008,06,28,05,51,14.10
2008,06,28,05,52,14.10
2008,06,28,05,53,14.10
2008,06,28,05,54,14.10
2008,06,28,05,55,14.10
2008,06,28,05,56,14.10
2008,06,28,05,57,14.20
2008,06,28,05,58,14.30
2008,06,28,05,59,14.30
2008,06,28,06,00,14.30
2008,06,28,06,01,14.40
2008,06,28,06,02,14.40
2008,06,28,06,03,14.40
2008,06,28,06,04,14.50
2008,06,28,06,05,14.60
2008,06,28,06,06,14.60
2008,06,28,06,07,14.70
2008,06,28,06,08,14.70
2008,06,28,06,09,14.80
2008,06,28,06,10,14.80
2008,06,28,06,11,14.90
2008,06,28,06,12,15.00
2008,06,28,06,13,15.00
2008,06,28,06,14,15.00
2008,06,28,06,15,15.00
2008,06,28,06,16,15.20
2008,06,28,06,17,15.20
2008,06,28,06,18,15.30
2008,06,28,06,19,15.40
2008,06,28,06,20,15.40
2008,06,28,06,21,15.50
2008,06,28,06,22,15.60
2008,06,28,06,23,15.60
2008,06,28,06,24,15.70
2008,06,28,06,25,15.80
2008,06,28,06,26,15.80
2008,06,28,06,27,15.90
2008,06,28,06,28,15.90
2008,06,28,06,29,16.00
2008,06,28,06,30,16.00
2008,06,28,06,31,16.10
2008,06,28,06,32,16.20
2008,06,28,06,33,16.30
2008,06,28,06,34,16.30
2008,06,28,06,35,16.40
2008,06,28,06,36,16.40
2008,06,28,06,37,16.50
2008,06,28,06,38,16.60
2008,06,28,06,39,16.70
2008,06,28,06,40,16.70
2008,06,28,06,41,16.80
2008,06,28,06,42,16.90
2008,06,28,06,43,17.00
2008,06,28,06,44,17.00
2008,06,28,06,45,17.10
2008,06,28,06,46,17.20
2008,06,28,06,47,17.30
2008,06,28,06,48,17.30
2008,06,28,06,49,17.40
2008,06,28,06,50,17.50
2008,06,28,06,51,17.60
2008,06,28,06,52,17.60
2008,06,28,06,53,17.70
2008,06,28,06,54,17.80
2008,06,28,06,55,18.00
2008,06,28,06,56,18.10
2008,06,28,06,57,18.20
2008,06,28,06,58,18.20
2008,06,28,06,59,18.20
2008,06,28,07,00,18.30
2008,06,28,07,01,18.30
2008,06,28,07,02,18.30
2008,06,28,07,03,18.20
2008,06,28,07,04,18.20
2008,06,28,07,05,18.10
2008,06,28,07,06,18.10
2008,06,28,07,07,18.10
2008,06,28,07,08,18.20
2008,06,28,07,09,18.20
2008,06,28,07,10,18.20
2008,06,28,07,11,18.20
2008,06,28,07,12,18.30
2008,06,28,07,13,18.30
2008,06,28,07,14,18.30
2008,06,28,07,15,18.30
2008,06,28,07,16,18.40
2008,06,28,07,17,18.40
2008,06,28,07,18,18.40
2008,06,28,07,19,18.40
2008,06,28,07,20,18.40
2008,06,28,07,21,18.40
2008,06,28,07,22,18.40
2008,06,28,07,23,18.40
2008,06,28,07,24,18.40
2008,06,28,07,25,18.40
2008,06,28,07,26,18.40
2008,06,28,07,27,18.40
2008,06,28,07,28,18.50
2008,06,28,07,29,18.50
2008,06,28,07,30,18.60
2008,06,28,07,31,18.60
2008,06,28,07,32,18.60
2008,06,28,07,33,18.70
2008,06,28,07,34,18.70
2008,06,28,07,35,18.70
2008,06,28,07,36,18.60
2008,06,28,07,37,18.60
2008,06,28,07,38,18.60
2008,06,28,07,39,18.60
2008,06,28,07,40,18.60
2008,06,28,07,41,18.60
2008,06,28,07,42,18.60
2008,06,28,07,43,18.60
2008,06,28,07,44,18.60
2008,06,28,07,45,18.70
2008,06,28,07,46,18.70
2008,06,28,07,47,18.70
2008,06,28,07,48,18.70
2008,06,28,07,49,18.80
2008,06,28,07,50,18.80
2008,06,28,07,51,18.80
2008,06,28,07,52,18.90
2008,06,28,07,53,18.90
2008,06,28,07,54,19.00
2008,06,28,07,55,19.10
2008,06,28,07,56,19.10
2008,06,28,07,57,19.20
2008,06,28,07,58,19.20
2008,06,28,07,59,19.20
2008,06,28,08,00,19.20
2008,06,28,08,01,19.20
2008,06,28,08,02,19.20
2008,06,28,08,03,19.30
2008,06,28,08,04,19.30
2008,06,28,08,05,19.40
2008,06,28,08,06,19.40
2008,06,28,08,07,19.50
2008,06,28,08,08,19.60
2008,06,28,08,09,19.60
2008,06,28,08,10,19.70
2008,06,28,08,11,19.70
2008,06,28,08,12,19.70
2008,06,28,08,13,19.70
2008,06,28,08,14,19.80
2008,06,28,08,15,19.80
2008,06,28,08,16,19.80
2008,06,28,08,17,19.90
2008,06,28,08,18,19.90
2008,06,28,08,19,19.90
2008,06,28,08,20,20.00
2008,06,28,08,21,20.00
2008,06,28,08,22,20.00
2008,06,28,08,23,20.00
2008,06,28,08,24,20.10
2008,06,28,08,25,20.20
2008,06,28,08,26,20.20
2008,06,28,08,27,20.20
2008,06,28,08,28,20.20
2008,06,28,08,29,20.30
2008,06,28,08,30,20.30
2008,06,28,08,31,20.30
2008,06,28,08,32,20.30
2008,06,28,08,33,20.30
2008,06,28,08,34,20.30
2008,06,28,08,35,20.30
2008,06,28,08,36,20.30
2008,06,28,08,37,20.30
2008,06,28,08,38,20.30
2008,06,28,08,39,20.30
2008,06,28,08,40,20.40
2008,06,28,08,41,20.40
2008,06,28,08,42,20.40
2008,06,28,08,43,20.40
2008,06,28,08,44,20.40
2008,06,28,08,45,20.40
2008,06,28,08,46,20.40
2008,06,28,08,47,20.40
2008,06,28,08,48,20.40
2008,06,28,08,49,20.40
2008,06,28,08,50,20.50
2008,06,28,08,51,20.50
2008,06,28,08,52,20.60
2008,06,28,08,53,20.60
2008,06,28,08,54,20.60
2008,06,28,08,55,20.50
2008,06,28,08,56,20.40
2008,06,28,08,57,20.30
2008,06,28,08,58,20.30
2008,06,28,08,59,20.20
2008,06,28,09,00,20.20
2008,06,28,09,01,20.20
2008,06,28,09,02,20.10
2008,06,28,09,03,20.10
2008,06,28,09,04,20.10
2008,06,28,09,05,20.10
2008,06,28,09,06,20.10
2008,06,28,09,07,20.20
2008,06,28,09,08,20.30
2008,06,28,09,09,20.30
2008,06,28,09,10,20.40
2008,06,28,09,11,20.50
2008,06,28,09,12,20.60
2008,06,28,09,13,20.60
2008,06,28,09,14,20.60
2008,06,28,09,15,20.70
2008,06,28,09,16,20.70
2008,06,28,09,17,20.70
2008,06,28,09,18,20.70
2008,06,28,09,19,20.80
2008,06,28,09,20,20.80
2008,06,28,09,21,20.80
2008,06,28,09,22,20.70
2008,06,28,09,23,20.70
2008,06,28,09,24,20.70
2008,06,28,09,25,20.60
2008,06,28,09,26,20.60
2008,06,28,09,27,20.50
2008,06,28,09,28,20.50
2008,06,28,09,29,20.40
2008,06,28,09,30,20.40
2008,06,28,09,31,20.50
2008,06,28,09,32,20.60
2008,06,28,09,33,20.70
2008,06,28,09,34,20.80
2008,06,28,09,35,20.80
2008,06,28,09,36,21.00
2008,06,28,09,37,21.10
2008,06,28,09,38,21.20
2008,06,28,09,39,21.20
2008,06,28,09,40,21.20
2008,06,28,09,41,21.20
2008,06,28,09,42,21.10
2008,06,28,09,43,21.00
2008,06,28,09,44,21.00
2008,06,28,09,45,20.90
2008,06,28,09,46,21.00
2008,06,28,09,47,21.00
2008,06,28,09,48,21.10
2008,06,28,09,49,21.20
2008,06,28,09,50,21.30
2008,06,28,09,51,21.40
2008,06,28,09,52,21.40
2008,06,28,09,53,21.50
2008,06,28,09,54,21.50
2008,06,28,09,55,21.50
2008,06,28,09,56,21.50
2008,06,28,09,57,21.50
2008,06,28,09,58,21.40
2008,06,28,09,59,21.40
2008,06,28,10,00,21.40
2008,06,28,10,01,21.50
2008,06,28,10,02,21.50
2008,06,28,10,03,21.60
2008,06,28,10,04,21.60
2008,06,28,10,05,21.60
2008,06,28,10,06,21.80
2008,06,28,10,07,21.80
2008,06,28,10,08,21.90
2008,06,28,10,09,21.90
2008,06,28,10,10,21.90
2008,06,28,10,11,21.80
2008,06,28,10,12,21.80
2008,06,28,10,13,21.80
2008,06,28,10,14,21.70
2008,06,28,10,15,21.70
2008,06,28,10,16,21.60
2008,06,28,10,17,21.60
2008,06,28,10,18,21.60
2008,06,28,10,19,21.60
2008,06,28,10,20,21.60
2008,06,28,10,21,21.60
2008,06,28,10,22,21.60
2008,06,28,10,23,21.70
2008,06,28,10,24,21.70
2008,06,28,10,25,21.70
2008,06,28,10,26,21.80
2008,06,28,10,27,21.70
2008,06,28,10,28,21.70
2008,06,28,10,29,21.70
2008,06,28,10,30,21.70
2008,06,28,10,31,21.80
2008,06,28,10,32,21.80
2008,06,28,10,33,21.90
2008,06,28,10,34,21.90
2008,06,28,10,35,21.90
2008,06,28,10,36,21.90
2008,06,28,10,37,22.00
2008,06,28,10,38,22.00
2008,06,28,10,39,22.10
2008,06,28,10,40,22.10
2008,06,28,10,41,22.10
2008,06,28,10,42,22.10
2008,06,28,10,43,22.20
2008,06,28,10,44,22.30
2008,06,28,10,45,22.30
2008,06,28,10,46,22.40
2008,06,28,10,47,22.40
2008,06,28,10,48,22.30
2008,06,28,10,49,22.30
2008,06,28,10,50,22.40
2008,06,28,10,51,22.50
2008,06,28,10,52,22.60
2008,06,28,10,53,22.60
2008,06,28,10,54,22.60
2008,06,28,10,55,22.50
2008,06,28,10,56,22.50
2008,06,28,10,57,22.40
2008,06,28,10,58,22.50
2008,06,28,10,59,22.50
2008,06,28,11,00,22.40
2008,06,28,11,01,22.40
2008,06,28,11,02,22.50
2008,06,28,11,03,22.60
2008,06,28,11,04,22.70
2008,06,28,11,05,22.80
2008,06,28,11,06,22.80
2008,06,28,11,07,22.90
2008,06,28,11,08,22.90
2008,06,28,11,09,23.00
2008,06,28,11,10,23.10
2008,06,28,11,11,23.10
2008,06,28,11,12,23.10
2008,06,28,11,13,23.10
2008,06,28,11,14,23.20
2008,06,28,11,15,23.20
2008,06,28,11,16,23.10
2008,06,28,11,17,23.10
2008,06,28,11,18,23.00
2008,06,28,11,19,22.90
2008,06,28,11,20,23.00
2008,06,28,11,21,23.10
2008,06,28,11,22,23.20
2008,06,28,11,23,23.30
2008,06,28,11,24,23.40
2008,06,28,11,25,23.50
2008,06,28,11,26,23.60
2008,06,28,11,27,23.60
2008,06,28,11,28,23.60
2008,06,28,11,29,23.60
2008,06,28,11,30,23.60
2008,06,28,11,31,23.50
2008,06,28,11,32,23.40
2008,06,28,11,33,23.40
2008,06,28,11,34,23.40
2008,06,28,11,35,23.40
2008,06,28,11,36,23.30
2008,06,28,11,37,23.30
2008,06,28,11,38,23.30
2008,06,28,11,39,23.30
2008,06,28,11,40,23.30
2008,06,28,11,41,23.30
2008,06,28,11,42,23.20
2008,06,28,11,43,23.20
2008,06,28,11,44,23.20
2008,06,28,11,45,23.20
2008,06,28,11,46,23.20
2008,06,28,11,47,23.20
2008,06,28,11,48,23.20
2008,06,28,11,49,23.20
2008,06,28,11,50,23.30
2008,06,28,11,51,23.30
2008,06,28,11,52,23.30
2008,06,28,11,53,23.20
2008,06,28,11,54,23.20
2008,06,28,11,55,23.20
2008,06,28,11,56,23.30
2008,06,28,11,57,23.30
2008,06,28,11,58,23.30
2008,06,28,11,59,23.30
2008,06,28,12,00,23.30
2008,06,28,12,01,23.30
2008,06,28,12,02,23.30
2008,06,28,12,03,23.30
2008,06,28,12,04,23.30
2008,06,28,12,05,23.30
2008,06,28,12,06,23.40
2008,06,28,12,07,23.40
2008,06,28,12,08,23.40
2008,06,28,12,09,23.50
2008,06,28,12,10,23.50
2008,06,28,12,11,23.60
2008,06,28,12,12,23.60
2008,06,28,12,13,23.60
2008,06,28,12,14,23.60
2008,06,28,12,15,23.60
2008,06,28,12,16,23.60
2008,06,28,12,17,23.70
2008,06,28,12,18,23.70
2008,06,28,12,19,23.80
2008,06,28,12,20,23.80
2008,06,28,12,21,23.90
2008,06,28,12,22,24.00
2008,06,28,12,23,24.00
2008,06,28,12,24,24.00
2008,06,28,12,25,24.00
2008,06,28,12,26,24.00
2008,06,28,12,27,24.10
2008,06,28,12,28,24.10
2008,06,28,12,29,24.10
2008,06,28,12,30,24.10
2008,06,28,12,31,24.10
2008,06,28,12,32,24.10
2008,06,28,12,33,24.20
2008,06,28,12,34,24.20
2008,06,28,12,35,24.30
2008,06,28,12,36,24.20
2008,06,28,12,37,24.20
2008,06,28,12,38,24.10
2008,06,28,12,39,24.10
2008,06,28,12,40,24.10
2008,06,28,12,41,24.20
2008,06,28,12,42,24.30
2008,06,28,12,43,24.30
2008,06,28,12,44,24.30
2008,06,28,12,45,24.20
2008,06,28,12,46,24.20
2008,06,28,12,47,24.20
2008,06,28,12,48,24.20
2008,06,28,12,49,24.20
2008,06,28,12,50,24.20
2008,06,28,12,51,24.30
2008,06,28,12,52,24.40
2008,06,28,12,53,24.50
2008,06,28,12,54,24.50
2008,06,28,12,55,24.50
2008,06,28,12,56,24.50
2008,06,28,12,57,24.60
2008,06,28,12,58,24.70
2008,06,28,12,59,24.80
2008,06,28,13,00,24.80
2008,06,28,13,01,24.80
2008,06,28,13,02,24.80
2008,06,28,13,03,24.70
2008,06,28,13,04,24.80
2008,06,28,13,05,24.80
2008,06,28,13,06,24.80
2008,06,28,13,07,24.80
2008,06,28,13,08,24.80
2008,06,28,13,09,24.90
2008,06,28,13,10,24.90
2008,06,28,13,11,25.00
2008,06,28,13,12,25.00
2008,06,28,13,13,25.00
2008,06,28,13,14,25.00
2008,06,28,13,15,25.10
2008,06,28,13,16,25.10
2008,06,28,13,17,25.10
2008,06,28,13,18,25.20
2008,06,28,13,19,25.30
2008,06,28,13,20,25.40
2008,06,28,13,21,25.40
2008,06,28,13,22,25.40
2008,06,28,13,23,25.40
2008,06,28,13,24,25.40
2008,06,28,13,25,25.40
2008,06,28,13,26,25.40
2008,06,28,13,27,25.50
2008,06,28,13,28,25.50
2008,06,28,13,29,25.50
2008,06,28,13,30,25.40
2008,06,28,13,31,25.30
2008,06,28,13,32,25.30
2008,06,28,13,33,25.30
2008,06,28,13,34,25.30
2008,06,28,13,35,25.30
2008,06,28,13,36,25.30
2008,06,28,13,37,25.40
2008,06,28,13,38,25.40
2008,06,28,13,39,25.30
2008,06,28,13,40,25.30
2008,06,28,13,41,25.30
2008,06,28,13,42,25.20
2008,06,28,13,43,25.20
2008,06,28,13,44,25.30
2008,06,28,13,45,25.30
2008,06,28,13,46,25.30
2008,06,28,13,47,25.20
2008,06,28,13,48,25.20
2008,06,28,13,49,25.30
2008,06,28,13,50,25.20
2008,06,28,13,51,25.20
2008,06,28,13,52,25.20
2008,06,28,13,53,25.20
2008,06,28,13,54,25.30
2008,06,28,13,55,25.30
2008,06,28,13,56,25.30
2008,06,28,13,57,25.40
2008,06,28,13,58,25.40
2008,06,28,13,59,25.40
2008,06,28,14,00,25.50
2008,06,28,14,01,25.60
2008,06,28,14,02,25.70
2008,06,28,14,03,25.90
2008,06,28,14,04,26.00
2008,06,28,14,05,26.10
2008,06,28,14,06,26.10
2008,06,28,14,07,26.10
2008,06,28,14,08,26.20
2008,06,28,14,09,26.20
2008,06,28,14,10,26.20
2008,06,28,14,11,26.20
2008,06,28,14,12,26.20
2008,06,28,14,13,26.10
2008,06,28,14,14,26.10
2008,06,28,14,15,26.10
2008,06,28,14,16,26.00
2008,06,28,14,17,25.90
2008,06,28,14,18,25.90
2008,06,28,14,19,25.90
2008,06,28,14,20,25.80
2008,06,28,14,21,25.80
2008,06,28,14,22,25.90
2008,06,28,14,23,26.00
2008,06,28,14,24,26.10
2008,06,28,14,25,26.30
2008,06,28,14,26,26.50
2008,06,28,14,27,26.70
2008,06,28,14,28,26.80
2008,06,28,14,29,26.80
2008,06,28,14,30,26.80
2008,06,28,14,31,27.00
2008,06,28,14,32,27.10
2008,06,28,14,33,27.30
2008,06,28,14,34,27.30
2008,06,28,14,35,27.30
2008,06,28,14,36,27.30
2008,06,28,14,37,27.30
2008,06,28,14,38,27.20
2008,06,28,14,39,27.10
2008,06,28,14,40,27.00
2008,06,28,14,41,27.00
2008,06,28,14,42,26.90
2008,06,28,14,43,26.90
2008,06,28,14,44,26.90
2008,06,28,14,45,26.80
2008,06,28,14,46,26.80
2008,06,28,14,47,26.90
2008,06,28,14,48,26.90
2008,06,28,14,49,26.80
2008,06,28,14,50,26.70
2008,06,28,14,51,26.60
2008,06,28,14,52,26.50
2008,06,28,14,53,26.40
2008,06,28,14,54,26.40
2008,06,28,14,55,26.30
2008,06,28,14,56,26.30
2008,06,28,14,57,26.30
2008,06,28,14,58,26.30
2008,06,28,14,59,26.30
2008,06,28,15,00,26.30
2008,06,28,15,01,26.30
2008,06,28,15,02,26.30
2008,06,28,15,03,26.30
2008,06,28,15,04,26.40
2008,06,28,15,05,26.40
2008,06,28,15,06,26.40
2008,06,28,15,07,26.40
2008,06,28,15,08,26.40
2008,06,28,15,09,26.40
2008,06,28,15,10,26.40
2008,06,28,15,11,26.50
2008,06,28,15,12,26.60
2008,06,28,15,13,26.60
2008,06,28,15,14,26.60
2008,06,28,15,15,26.60
2008,06,28,15,16,26.70
2008,06,28,15,17,26.70
2008,06,28,15,18,26.80
2008,06,28,15,19,26.70
2008,06,28,15,20,26.70
2008,06,28,15,21,26.70
2008,06,28,15,22,26.70
2008,06,28,15,23,26.80
2008,06,28,15,24,26.80
2008,06,28,15,25,26.90
2008,06,28,15,26,26.90
2008,06,28,15,27,27.00
2008,06,28,15,28,27.20
2008,06,28,15,29,27.30
2008,06,28,15,30,27.30
2008,06,28,15,31,27.30
2008,06,28,15,32,27.30
2008,06,28,15,33,27.30
2008,06,28,15,34,27.30
2008,06,28,15,35,27.30
2008,06,28,15,36,27.30
2008,06,28,15,37,27.30
2008,06,28,15,38,27.30
2008,06,28,15,39,27.20
2008,06,28,15,40,27.20
2008,06,28,15,41,27.20
2008,06,28,15,42,27.20
2008,06,28,15,43,27.20
2008,06,28,15,44,27.30
2008,06,28,15,45,27.40
2008,06,28,15,46,27.50
2008,06,28,15,47,27.50
2008,06,28,15,48,27.60
2008,06,28,15,49,27.60
2008,06,28,15,50,27.60
2008,06,28,15,51,27.60
2008,06,28,15,52,27.60
2008,06,28,15,53,27.60
2008,06,28,15,54,27.60
2008,06,28,15,55,27.60
2008,06,28,15,56,27.60
2008,06,28,15,57,27.60
2008,06,28,15,58,27.60
2008,06,28,15,59,27.60
2008,06,28,16,00,27.70
2008,06,28,16,01,27.70
2008,06,28,16,02,27.70
2008,06,28,16,03,27.80
2008,06,28,16,04,27.80
2008,06,28,16,05,27.80
2008,06,28,16,06,27.80
2008,06,28,16,07,27.80
2008,06,28,16,08,27.80
2008,06,28,16,09,27.80
2008,06,28,16,10,27.90
2008,06,28,16,11,28.00
2008,06,28,16,12,28.00
2008,06,28,16,13,28.10
2008,06,28,16,14,28.00
2008,06,28,16,15,28.10
2008,06,28,16,16,28.10
2008,06,28,16,17,28.20
2008,06,28,16,18,28.20
2008,06,28,16,19,28.20
2008,06,28,16,20,28.20
2008,06,28,16,21,28.20
2008,06,28,16,22,28.30
2008,06,28,16,23,28.40
2008,06,28,16,24,28.60
2008,06,28,16,25,28.70
2008,06,28,16,26,28.70
2008,06,28,16,27,28.70
2008,06,28,16,28,28.70
2008,06,28,16,29,28.70
2008,06,28,16,30,28.70
2008,06,28,16,31,28.60
2008,06,28,16,32,28.50
2008,06,28,16,33,28.50
2008,06,28,16,34,28.50
2008,06,28,16,35,28.60
2008,06,28,16,36,28.70
2008,06,28,16,37,28.70
2008,06,28,16,38,28.70
2008,06,28,16,39,28.70
2008,06,28,16,40,28.60
2008,06,28,16,41,28.60
2008,06,28,16,42,28.60
2008,06,28,16,43,28.60
2008,06,28,16,44,28.60
2008,06,28,16,45,28.60
2008,06,28,16,46,28.70
2008,06,28,16,47,28.80
2008,06,28,16,48,28.80
2008,06,28,16,49,29.00
2008,06,28,16,50,29.10
2008,06,28,16,51,28.90
2008,06,28,16,52,28.80
2008,06,28,16,53,28.80
2008,06,28,16,54,28.80
2008,06,28,16,55,28.70
2008,06,28,16,56,28.70
2008,06,28,16,57,28.70
2008,06,28,16,58,28.70
2008,06,28,16,59,28.70
2008,06,28,17,00,28.70
2008,06,28,17,01,28.70
2008,06,28,17,02,28.70
2008,06,28,17,03,28.70
2008,06,28,17,04,28.60
2008,06,28,17,05,28.60
2008,06,28,17,06,28.60
2008,06,28,17,07,28.50
2008,06,28,17,08,28.50
2008,06,28,17,09,28.40
2008,06,28,17,10,28.50
2008,06,28,17,11,28.50
2008,06,28,17,12,28.60
2008,06,28,17,13,28.60
2008,06,28,17,14,28.60
2008,06,28,17,15,28.60
2008,06,28,17,16,28.60
2008,06,28,17,17,28.50
2008,06,28,17,18,28.50
2008,06,28,17,19,28.50